Luxor, Egypt

1:12 AM EET on December 15, 2017 (GMT +0200)
Luxor

Weather History for HELX - November, 2012

Change the Weather History Date:

Saturday, November 3, 2012

  Actual Average Record
Temperature  
Mean Temperature 87 °F -  
Max Temperature 98 °F 80 °F 98 °F (2003)
Min Temperature 76 °F 53 °F 53 °F (1996)
Cooling Degree Days 22    
Growing Degree Days 37 (Base 50)    
Moisture  
Dew Point 65 °F    
Average Humidity 47    
Maximum Humidity 65    
Minimum Humidity 31    
Precipitation  
Precipitation 0.00 in 0.00 in - ()
Sea Level Pressure  
Sea Level Pressure 29.81 in    
Wind  
Wind Speed 3 mph ()    
Max Wind Speed 28 mph    
Max Gust Speed 34 mph    
Visibility 4.7 miles    
Events      
Averages and records for this station are not official NWS values.
T = Trace of Precipitation, MM = Missing Value Source: Averaged Metar Reports

Daily Weather History Graph

Daily Weather History Graph

Search for Another Location

Airport or City:

Trip Planner

Search our weather history database for the weather conditions in past years. The results will help you decide how hot, cold, wet, or windy it might be!

Date:

Astronomy

Nov. 03, 2012 Rise Set
Actual Time 5:58 AM EET 5:06 PM EET
Civil Twilight 5:35 AM EET 5:30 PM EET
Nautical Twilight 5:07 AM EET 5:57 PM EET
Astronomical Twilight 4:40 AM EET 6:24 PM EET
Moon 8:38 PM EET (11/3) 9:37 AM EET (11/3)
Length of Visible Light 11h 55m
Length of Day
11h 07m
Waning Gibbous, 82% of the Moon is Illuminated
Nov 3
Waning Gibbous
Nov 7
Last Quarter
Nov 14
New
Nov 20
First Quarter
Nov 28
Full

Hourly Weather History & Observations

Time (EET) Temp. Heat Index Dew Point Humidity Pressure Visibility Wind Dir Wind Speed Gust Speed Precip Events Conditions
12:00 AM 82.4 °F 84.6 °F 66.2 °F 58% 29.80 in - Calm Calm - N/A   Clear
1:00 AM 78.8 °F - 64.4 °F 61% 29.80 in - Calm Calm - N/A   Clear
2:00 AM 82 °F - 66 °F 50% 29.80 in 6 mi Calm Calm - -  
2:00 AM 82.4 °F 84.6 °F 66.2 °F 58% 29.80 in - Calm Calm - N/A   Clear
3:00 AM 80.6 °F 82.7 °F 66.2 °F 61% 29.80 in - Calm Calm - N/A   Clear
4:00 AM 80.6 °F 82.7 °F 66.2 °F 61% 29.80 in - Calm Calm - N/A   Clear
5:00 AM 78.8 °F - 66.2 °F 65% 29.83 in - Calm Calm - N/A   Clear
6:00 AM 77.0 °F - 64.4 °F 65% 29.83 in - ENE 1.2 mph - N/A   Clear
7:00 AM 78.8 °F - 64.4 °F 61% 29.86 in - NE 1.2 mph - N/A   Clear
8:00 AM 84 °F - 66 °F 46% 29.86 in 6 mi East 2.3 mph - -   Clear
8:00 AM 84.2 °F 86.6 °F 66.2 °F 55% 29.86 in - East 2.3 mph - N/A   Clear
9:00 AM 87.8 °F 90.4 °F 66.2 °F 49% 29.86 in - ESE 8.1 mph - N/A   Clear
10:00 AM 91.4 °F 94.0 °F 66.2 °F 43% 29.86 in - SE 5.8 mph - N/A   Clear
11:00 AM 95.0 °F 97.0 °F 64.4 °F 36% 29.86 in - SE 2.3 mph - N/A   Clear
12:00 PM 98.6 °F 104.1 °F 68.0 °F 37% 29.83 in - WSW 3.5 mph - N/A   Clear
1:00 PM 98.6 °F 105.5 °F 69.8 °F 39% 29.80 in - NNW 3.5 mph - N/A   Clear
2:00 PM 97 °F - 70 °F 32% 29.77 in 6 mi North 3.5 mph - -   Clear
2:00 PM 96.8 °F 103.1 °F 69.8 °F 41% 29.77 in - North 3.5 mph - N/A   Clear
3:00 PM 96.8 °F 103.1 °F 69.8 °F 41% 29.77 in 6.2 mi NNW 3.5 mph - N/A   Scattered Clouds
4:00 PM 95.0 °F 98.5 °F 66.2 °F 39% 29.77 in 6.2 mi NW 2.3 mph - N/A   Scattered Clouds
5:00 PM 91.4 °F 90.7 °F 59.0 °F 34% 29.77 in 5.0 mi WNW 12.7 mph - N/A   Scattered Clouds
6:00 PM 91.4 °F 89.9 °F 57.2 °F 31% 29.77 in 6.2 mi North 2.3 mph - N/A   Scattered Clouds
7:00 PM 89.6 °F 90.1 °F 62.6 °F 40% 29.80 in 0.1 mi East 27.6 mph 34.5 mph N/A   Sandstorm
8:00 PM 89 °F - 62 °F 31% 29.80 in 2 mi East 18.4 mph - -   Blowing Sand
8:00 PM 89.6 °F 90.1 °F 62.6 °F 40% 29.80 in 2.5 mi East 18.4 mph - N/A   Sand
9:00 PM 87.8 °F 87.6 °F 60.8 °F 40% 29.83 in 5.0 mi NE 5.8 mph - N/A   Partly Cloudy
10:00 PM 86.0 °F 86.1 °F 60.8 °F 43% 29.83 in - Calm Calm - N/A   Clear
11:00 PM 82.4 °F 83.9 °F 64.4 °F 54% 29.86 in - North 5.8 mph - N/A   Clear